KBTMKDLN

Guest
Details From KBTM - Bert Mooney
To KDLN - Dillon
Flight Number -
Tags Generated
Created
Modified
Stats Distance 43 nm / 79 km
Max Altitude 0 ft / 0 m
Waypoints 2
Social Downloads 1
Likes 0
Share VATSIM

Download

Looking for another format? Having issues loading an existing format? Contact us
Advertisement - Login to hide

Notes

Generated

Route

KBTM KDLN

ID Type Via Altitude Latitude Longitude Leg Dist Tot Dist Heading (true) Name
O KBTM APT - 0 ft / 0 m 45.95899˚ -112.50574˚ - 0 nm - -
O KDLN APT - 0 ft / 0 m 45.24883˚ -112.55844˚ 42 nm 42 nm 183° / 183° -

Altitude Profile

Advertisement - Login to hide

KBTM

Details ICAO KBTM (BTM)
Name Bert Mooney
Region United States
Timezone America/Denver (UTC-6.0)
Stats Elevation 5,550 ft / 1,692 m (AMSL)
Location 45.953450° -112.496706°
Runways 3
Magnetic Variation 12.451° E

METAR

KBTM 252230Z AUTO 01011G18KT 10SM FEW070 23/05 A2995 RMK AO2 LTG DSNT SE AND S TSE14 T02330050

Decode

TAF

TAF KBTM 252029Z 2520/2618 VRB04KT P6SM SCT110 TEMPO 2521/2523 21015G35KT 6SM -TSRA BKN060CB BKN100 FM252300 16010KT P6SM VCSH OVC100 FM260600 VRB04KT P6SM SCT100

Decode

Departure Runways

ID Width Length Bearing (true) Bearing (mag) Surface Threshold Offset Overrun Length
02 75 ft / 23 m 5,542 ft / 1,689 m 37.91° 25.46° Asphalt 0 ft / 0 m 0 ft / 0 m
11 75 ft / 23 m 5,093 ft / 1,552 m 129.21° 116.76° Asphalt 0 ft / 0 m 0 ft / 0 m
15 150 ft / 46 m 9,003 ft / 2,744 m 166.91° 154.46° Asphalt 0 ft / 0 m 110 ft / 34 m
20 75 ft / 23 m 5,542 ft / 1,689 m 217.92° 205.47° Asphalt 0 ft / 0 m 0 ft / 0 m
29 75 ft / 23 m 5,093 ft / 1,552 m 309.22° 296.77° Asphalt 0 ft / 0 m 0 ft / 0 m
33 150 ft / 46 m 9,003 ft / 2,744 m 346.92° 334.47° Asphalt 0 ft / 0 m 110 ft / 34 m

KDLN

Details ICAO KDLN
Name Dillon
Region United States
Timezone America/Denver (UTC-6.0)
Stats Elevation 5,241 ft / 1,597 m (AMSL)
Location 45.254607° -112.552629°
Runways 2
Magnetic Variation 12.355° E

METAR

KDLN 252225Z AUTO 25016G27KT 200V280 9SM FEW065 BKN100 22/04 A2993 RMK AO2 PK WND 26027/2224 LTG DSNT SW-N T02170039

Decode

TAF

Not found

Destination Runways

ID Width Length Bearing (true) Bearing (mag) Surface Threshold Offset Overrun Length
03 60 ft / 18 m 3,593 ft / 1,095 m 50.03° 37.68° Asphalt 0 ft / 0 m 0 ft / 0 m
16 75 ft / 23 m 6,504 ft / 1,983 m 178.60° 166.25° Asphalt 0 ft / 0 m 0 ft / 0 m
21 60 ft / 18 m 3,593 ft / 1,095 m 230.04° 217.69° Asphalt 0 ft / 0 m 0 ft / 0 m
34 75 ft / 23 m 6,504 ft / 1,983 m 358.60° 346.25° Asphalt 0 ft / 0 m 0 ft / 0 m